This is the latest recevied weather packets stored in our database for station/object KD4EG. If no packets are shown the sender has not sent any weather packets the latest 10 day(s).
| Time | Temp. | Humidity | Pressure | Rain* | Wind** | Luminosity | Snow |
|---|---|---|---|---|---|---|---|
| 1777635534 | 7.78° C | 84% | 1018.3 hPa | 0 mm | - | 53 W/m² | - |
| 1777635231 | 7.78° C | 83% | 1018 hPa | 0 mm | - | 50 W/m² | - |
| 1777634928 | 7.78° C | 82% | 1018.1 hPa | 0 mm | - | 52 W/m² | - |
| 1777634624 | 7.22° C | 82% | 1018 hPa | 0 mm | - | 48 W/m² | - |
| 1777634322 | 7.22° C | 83% | 1018 hPa | 0 mm | - | 41 W/m² | - |
| 1777634018 | 6.67° C | 83% | 1017.9 hPa | 0 mm | - | 39 W/m² | - |
| 1777633715 | 6.67° C | 84% | 1017.7 hPa | 0 mm | - | 37 W/m² | - |
| 1777633414 | 6.67° C | 85% | 1017.9 hPa | 0 mm | - | 33 W/m² | - |
| 1777633111 | 6.67° C | 86% | 1017.7 hPa | 0 mm | - | 32 W/m² | - |
| 1777632807 | 6.67° C | 87% | 1017.7 hPa | 0 mm | - | 23 W/m² | - |
| 1777632503 | 6.67° C | 86% | 1017.7 hPa | 0 mm | - | 16 W/m² | - |
| 1777632200 | 6.67° C | 86% | 1017.6 hPa | 0 mm | - | 13 W/m² | - |
| 1777631897 | 6.67° C | 85% | 1017.7 hPa | 0 mm | - | 8 W/m² | - |
| 1777631596 | 6.67° C | 86% | 1017.4 hPa | 0 mm | - | 5 W/m² | - |
| 1777631293 | 6.67° C | 86% | 1017.6 hPa | 0 mm | - | 2 W/m² | - |
| 1777630990 | 6.67° C | 86% | 1017.6 hPa | 0 mm | - | 1 W/m² | - |
| 1777630685 | 6.67° C | 86% | 1017.6 hPa | 0 mm | - | 0 W/m² | - |
| 1777630383 | 7.22° C | 85% | 1017.2 hPa | 0 mm | - | 0 W/m² | - |
| 1777630080 | 7.22° C | 84% | 1017.4 hPa | 0 mm | - | 0 W/m² | - |
| 1777629777 | 7.22° C | 84% | 1017.3 hPa | 0 mm | - | 0 W/m² | - |
| 1777629474 | 7.22° C | 84% | 1017.3 hPa | 0 mm | - | 0 W/m² | - |
| 1777629170 | 7.78° C | 84% | 1017.2 hPa | 0 mm | - | 0 W/m² | - |
| 1777628867 | 7.22° C | 83% | 1017.2 hPa | 0 mm | - | 0 W/m² | - |
| 1777628563 | 7.78° C | 84% | 1017.3 hPa | 0 mm | - | 0 W/m² | - |
| 1777628259 | 7.78° C | 84% | 1017.3 hPa | 0 mm | - | 0 W/m² | - |
* Rain latest hour (hover to see other rain measurements)
** Current wind speed in m/s (hover to see current wind gust speed)